Location: Liverpool
(53.4163°N, 2.9405°W)
Time: 11:40:58
(UTC+01:00)

ISS - Pass Details

Date: 01 April 2020
Orbit: 417 x 419 km, 51.6° (Epoch: 03 June)

Event Time Altitude Azimuth Distance (km) Brightness Sun altitude
Rises 21:26:41 0° 279° (W) 2,368 1.4 -14.6°
Reaches altitude 10° 21:29:05 10° 263° (W) 1,500 -0.2 -14.9°
Maximum altitude 21:31:44 21° 212° (SSW) 984 -1.9 -15.3°
Enters shadow 21:32:59 18° 180° (S) 1,122 -1.9 -15.4°
